Location: Byhalia Creek
(34.8270°N, 89.8040°W)
Time: 17:21:22
(UTC+00:00)

USA 59 Rocket - Pass Details

Date: 22 April 2026
Orbit: 367 x 1664 km, 63.3° (Epoch: 9 May)

Event Time Altitude Azimuth Distance (km) Brightness Sun altitude
Rises 02:26:17 0° 329° (NNW) 2,521 4.3 -21.3°
Reaches altitude 10° 02:28:08 10° 331° (NNW) 1,753 3.3 -21.7°
Maximum altitude 02:32:01 84° 60° (ENE) 642 0.0 -22.3°
Enters shadow 02:32:40 65° 137° (SE) 721 0.0 -22.4°
